Location: Brachstadt
(48.6975°N, 10.6755°E)
Time: 05:52:30
(UTC+00:00)

Terra - Pass Details

Date: 18 September 2020
Orbit: 701 x 703 km, 98.2° (Epoch: 22 October)

Event Time Altitude Azimuth Distance (km) Brightness Sun altitude
Exits shadow 20:19:12 26° 30° (NNE) 1,381 3.4 -27.6°
Drops below altitude 10° 20:21:52 10° 3° (N) 2,183 4.8 -28.0°
Sets 20:24:18 0° 354° (N) 3,106 5.8 -28.3°
